Location: Newark
(49.3000°N, 9.4667°E)
Time: 23:27:43
(UTC+00:00)

Transit 2A Rocket - Pass Details

Date: 22 May 2019
Orbit: 586 x 917 km, 66.7° (Epoch: 20 June)

Event Time Altitude Azimuth Distance (km) Brightness Sun altitude
Rises 00:44:25 0° 324° (NW) 3,489 8.9 -17.8°
Reaches altitude 10° 00:47:07 10° 331° (NNW) 2,509 8.2 -17.7°
Maximum altitude 00:52:41 46° 44° (NE) 1,080 6.2 -17.3°
Drops below altitude 10° 00:57:47 10° 118° (ESE) 2,293 7.4 -17.0°
Sets 01:00:09 0° 124° (SE) 3,160 8.1 -16.8°
